World > North America > United States > Nevada

Lake Tahoe, Nevada Regional Weather

Lat: 39.17N, Lon: 120.14W
Wx Zone: NVZ002
Feedback

Lake Tahoe, NV Regional Weather

Expires:201910171600;;848175
ASUS45 KREV 171510
RWRNV 
NEVADA REGIONAL WEATHER ROUNDUP
NATIONAL WEATHER SERVICE RENO NV
800 AM PDT THU OCT 17 2019

NOTE: "FAIR" INDICATES FEW OR NO CLOUDS BELOW 12,000 FEET WITH NO
SIGNIFICANT WEATHER AND/OR OBSTRUCTIONS TO VISIBILITY.


NVZ002-CAZ072-073-171600-
NORTHERN AND CENTRAL SIERRA
  
CITY           SKY/WX    TMP DP  RH WIND       PRES   REMARKS
S. LAKE TAHOE  LGT RAIN  43  36  76 SE6G16    29.91R                  
TRUCKEE        PTCLDY    41  34  75 CALM      29.92R                  
SQUAW VLY 8000   N/A      1 -18  39 SW16        N/A  WCI -18          
BLUE CANYON    FOG       43  41  93 S6        29.95R VSB 1/4          
MAMMOTH LAKES  FAIR      52  18  26 SW16G26   29.90F                  
BRIDGEPORT       N/A     45  23  42 SE3         N/A                   
$$


SKY/WX - Weather  TMP - Temperature  DP - Dew Point  RH - Relative Humidity
WIND - Wind Direction/Speed PRES - Barometric Pressure VSB - Visibility
WCI - Wind Chill Index E13G22 Wind - East Wind 13 mph/Gusts of 22 mph